Showing default

QIANFAN-58, 62788

Orbit data source: Space-Track

QIANFAN-58, 62788 is a Chinese payload satellite in LEO that was launched on Thu, 23 Jan 2025 UTC via a CHANG ZHENG 6A launch vehicle from the Taiyaun Space Center, China (TSC). Payload-class satellites include a variety of spacecraft equipped with specific instruments for various scientific and technological missions. These include communications satellites like Starlink; space stations such as the ISS; scientific satellites like the Hubble; Earth observation satellites from companies like Planet Labs, Umbra, and HawkEye 360; GPS; miniature CubeSats for education and research; and military/defense satellites.

Loading next visibility...
Identifier
62788, 2025-016D
Orbit
LEO
Country
Flag of CNCN / PRC
Related business
Manufacturer
SECM
Mission
Operational Commercial Communications
Bus & Motor
QIANFAN, Unknown motor
Mass
267 kg wet, ~267 kg dry
Launch date (UTC)
2025-01-23 (9 months ago)
Launch vehicle
CHANG ZHENG 6A
Launch site
Taiyaun Space Center, China (TSC)
Object type
Payload
Rocket body
Debris
Shape & HBR
Box + 1 Pan, 1.3 m
Radar Cross Section
13.200 m², Large (>1 m²)

Expand to show TLE details & history
Last TLE update: 1 day ago

TLE from 1 day ago
0 QIANFAN-58
1 62788U 25016D   25306.50530358  .00000059  00000-0  72006-4 0  9993
2 62788  88.9721 107.1949 0015563  99.0594 261.2319 13.50976915 41819
Epoch: 2025-11-02T12:07Z
TLE epoch observation values (Epoch: 2025-11-02T12:07:38.229Z)
Latitude
-0.00001°
Longitude
-116.73446°
Altitude
1,073.404 km
Speed
7.314 km/s
True Right ascension
07h 08m 46s
True Declination
0° 00' 00"
Sunlit
Object was in daylight at epoch
Visualization orbit readout
Latitude
Unknown
Longitude
Unknown
Altitude
Unknown
Speed
Unknown
Apparent Right ascension
Unknown
Apparent Declination
Unknown
Sunlit
N/A
Visualization observer readout
Local Sidereal Time
14:39:08
Azimuth
Unknown
Elevation
Unknown
Doppler factor
Unknown
Orbital elements
Apogee altitude
1,077.303 km
Perigee altitude
1,054.133 km
Semi-major axis
7,443.855 km
Eccentricity
0.00156
Inclination
88.9721°
RAAN
107.1949°
Arg. of periapsis
99.0594°
True anomaly
261.0557°
Mean anomaly
261.2319°
Eccentric anomaly
261.14379°
Mean motion
3.37945 °/min
Orbital period
106.53 mins
BSTAR
0.000072006
Loading maneuver chart data...
Computing Atmospheric mass density...
Loading historical data...
Loading historical data...
Loading historical data...
Loading historical data...
Loading historical data...
Loading historical data...
Loading historical data...

Documentation

Showing up to 5 results
|